Overview Statistics Trail Chart Weather Telemetry Raw packets
 

This is the latest recevied weather packets stored in our database for station/object KC5DAQ-27. If no packets are shown the sender has not sent any weather packets the latest 10 day(s).

<< 518 519 520 521 522 523 524 >>
Time Temp. Humidity Pressure Rain* Wind** Luminosity Snow
1787946585 37.22° C 51% 1006.1 hPa 0 mm - 1062 W/m² -
1787946527 37.22° C 51% 1006.2 hPa 0 mm - 1060 W/m² -
1787946465 37.22° C 51% 1006.2 hPa 0 mm - 1055 W/m² -
1787946405 37.22° C 51% 1006.3 hPa 0 mm - 1053 W/m² -
1787946346 37.22° C 51% 1006.2 hPa 0 mm - 1046 W/m² -
1787946287 37.22° C 51% 1006.4 hPa 0 mm - 1037 W/m² -
1787946225 37.22° C 51% 1006.4 hPa 0 mm - 1037 W/m² -
1787946165 37.22° C 51% 1006.4 hPa 0 mm - 1037 W/m² -
1787946106 37.22° C 51% 1006.4 hPa 0 mm - 1034 W/m² -
1787946045 37.22° C 51% 1006.4 hPa 0 mm - 1036 W/m² -
1787945986 37.22° C 51% 1006.5 hPa 0 mm - 1037 W/m² -
1787945926 37.22° C 51% 1006.5 hPa 0 mm - 1041 W/m² -
1787945865 37.22° C 52% 1006.5 hPa 0 mm - 1046 W/m² -
1787945805 36.67° C 52% 1006.5 hPa 0 mm - 1055 W/m² -
1787945745 36.67° C 52% 1006.6 hPa 0 mm - 1062 W/m² -
1787945686 36.67° C 52% 1006.6 hPa 0 mm - 1064 W/m² -
1787945625 36.67° C 51% 1006.6 hPa 0 mm - 1074 W/m² -
1787945565 36.67° C 51% 1006.7 hPa 0 mm - 1069 W/m² -
1787945505 36.67° C 51% 1006.6 hPa 0 mm - 1064 W/m² -
1787945445 36.67° C 51% 1006.7 hPa 0 mm - 1066 W/m² -
1787945385 37.22° C 51% 1006.7 hPa 0 mm - 1069 W/m² -
1787945324 37.22° C 51% 1006.8 hPa 0 mm - 1071 W/m² -
1787945266 37.22° C 51% 1006.8 hPa 0 mm - 1074 W/m² -
1787945204 37.22° C 50% 1006.8 hPa 0 mm - 1074 W/m² -
1787945144 37.22° C 51% 1006.8 hPa 0 mm - 1073 W/m² -

* Rain latest hour (hover to see other rain measurements)
** Current wind speed in m/s (hover to see current wind gust speed)